Wind_Speed
20 21 21 21 21 21 21 21 21 21 21 21 20 20 19 17 16 15 14 13 12 13 11 11 9 7 8 6 7 5 4 3 10 13 12 7 7 21 20 20 21 19 21 15 13 16 14
20 21 22 23 23 23 23 22 23 23 23 24 23 22 22 20 19 18 17 16 16 16 15 12 11 10 10 7 6 6 1 3 11 14 13 8 13 6 13 12 12 16 17 14 8 12 14
20 21 21 22 24 24 25 26 25 26 26 25 25 24 24 23 22 22 20 19 18 16 15 13 13 13 13 9 8 8 4 3 13 16 14 15 13 13 10 12 15 7 11 20 15 18 15
22 22 23 25 27 28 30 31 31 32 31 31 30 28 26 24 24 23 21 20 19 19 18 17 16 17 14 11 9 9 7 7 12 20 19 15 14 15 13 17 17 22 3 16 14 13 11
24 25 26 27 29 30 32 33 34 35 35 35 34 33 31 29 27 25 24 23 24 23 23 21 20 20 16 18 17 12 11 12 11 16 20 18 16 17 11 11 22 30 19 5 32 27 8
23 23 22 21 22 24 25 27 29 31 32 32 34 34 33 31 29 28 27 25 25 24 21 21 22 23 22 26 20 16 15 13 14 10 18 17 16 10 8 13 20 22 20 27 30 34 15
11 13 14 16 16 17 18 19 20 21 22 23 24 25 26 26 25 24 22 20 20 19 20 21 20 24 24 21 19 17 16 17 13 10 16 18 17 12 10 13 14 19 10 16 21 28 27
9 8 8 9 11 11 12 13 13 11 9 7 7 10 12 14 14 14 15 15 15 16 16 17 22 24 18 19 18 18 16 15 13 17 21 25 19 15 11 11 14 13 12 15 17 22 24
4 3 6 9 10 12 13 13 12 10 8 5 2 3 6 7 9 11 13 13 14 14 15 15 18 20 18 19 21 19 17 18 16 18 25 25 23 16 14 11 14 11 9 12 16 17 19
4 6 9 11 11 12 12 12 10 9 8 7 5 5 7 9 10 10 10 12 13 11 15 15 16 15 16 19 19 19 18 18 17 20 30 26 32 25 18 12 7 4 6 10 12 11 11
6 6 5 6 9 10 10 9 7 6 5 4 3 3 4 5 5 4 2 1 2 3 8 8 12 13 18 18 17 17 18 17 19 21 30 32 33 29 21 16 10 6 6 6 14 13 10
3 4 5 7 9 10 10 9 8 8 7 9 10 9 8 8 13 19 16 16 13 11 10 6 7 12 14 18 17 18 19 18 19 20 33 28 30 29 21 15 11 12 1 5 7 12 11
2 3 4 7 10 11 10 10 10 9 10 13 16 16 16 24 24 19 18 17 15 11 9 9 10 14 11 13 14 14 15 13 15 16 23 25 19 25 30 18 14 6 4 2 7 11 14
1 1 2 4 6 8 10 9 9 10 11 14 15 15 20 24 19 14 15 14 13 14 11 11 14 18 19 13 14 14 16 19 20 19 23 17 11 14 15 19 18 17 10 10 2 8 10
2 2 2 2 3 4 5 6 6 7 10 12 12 12 15 19 16 11 8 12 15 18 14 16 23 21 19 23 23 23 26 23 19 17 24 15 13 12 11 13 19 18 16 10 4 5 8
6 5 5 4 5 4 3 2 2 2 5 7 8 8 12 14 11 7 6 6 16 20 20 20 17 17 19 25 28 29 30 20 23 28 21 20 14 10 8 13 13 14 19 9 4 4 4
8 8 8 7 6 6 4 3 2 2 3 5 5 5 2 4 7 9 9 5 13 10 13 12 12 12 17 22 23 23 17 11 19 20 19 16 15 8 6 9 7 18 19 16 10 4 3
7 6 6 7 6 5 3 2 3 4 4 6 5 6 2 4 6 7 11 6 12 12 5 9 11 11 15 16 13 14 11 6 11 20 13 13 14 11 10 7 9 9 20 15 11 8 4
7 6 6 6 6 4 2 1 3 4 5 6 5 5 5 6 1 5 8 7 8 13 6 12 11 12 12 13 11 11 13 13 13 13 12 16 17 15 13 11 11 12 15 10 6 4 5
12 9 6 5 6 5 4 2 2 4 4 5 5 8 6 10 10 7 2 4 2 8 13 6 17 17 14 15 14 13 14 18 15 12 8 15 20 20 18 18 17 16 13 15 8 10 15
11 12 10 7 6 6 5 4 4 3 5 6 7 8 8 11 12 9 4 7 10 5 7 15 22 20 20 21 20 17 15 15 13 8 8 14 18 27 24 21 19 20 19 17 19 14 18
13 11 10 11 9 8 8 7 5 5 5 6 7 6 7 7 8 5 4 6 4 1 6 9 14 20 26 24 21 21 18 20 20 16 18 18 17 23 27 29 27 26 26 19 23 21 21
14 13 12 11 13 13 11 12 11 8 6 5 4 4 3 2 2 3 3 2 4 8 4 6 8 14 18 25 26 24 21 19 16 12 15 16 21 24 19 17 18 19 20 23 23 22 24
23 19 16 14 13 13 16 15 16 15 13 11 9 7 4 1 0 1 4 2 2 4 4 6 8 9 10 11 10 13 19 18 14 12 16 16 22 29 25 22 23 22 21 21 17 18 17
28 25 23 20 18 16 15 17 19 19 19 18 17 15 11 8 6 6 5 4 6 5 4 2 4 7 10 12 12 12 13 14 14 15 14 19 20 28 32 28 28 31 27 24 23 24 23
35 32 29 27 26 24 21 20 20 20 22 22 23 22 19 17 13 13 11 9 10 7 5 8 6 5 5 9 12 13 14 13 14 12 13 16 20 17 23 33 33 32 31 32 32 28 25
44 40 36 33 31 30 30 28 27 26 23 24 26 26 25 23 20 18 17 15 14 10 8 12 9 8 7 7 9 11 12 10 11 10 13 14 15 17 18 20 21 26 29 28 26 22 22
51 48 44 41 37 35 34 34 35 33 32 30 28 28 27 27 26 23 22 20 18 17 13 13 12 11 10 9 7 5 7 7 8 7 9 12 13 14 15 15 15 17 22 23 21 19 18
57 54 51 47 43 39 37 38 37 39 41 38 36 33 31 28 27 26 26 26 22 20 19 17 14 13 12 12 10 9 8 8 9 8 6 10 12 11 11 9 8 10 14 16 16 17 18
Wind_Direction
276 280 282 283 283 283 280 277 273 272 271 271 273 275 276 277 277 277 275 275 273 277 282 286 287 286 296 310 323 341 2 18 122 123 117 93 115 103 93 87 83 96 100 108 99 97 107
279 281 283 285 283 282 280 277 276 274 270 267 266 268 270 271 271 270 269 270 270 272 276 276 273 266 269 271 284 287 294 343 138 128 121 95 137 115 121 94 97 93 97 115 98 96 76
279 283 284 284 284 284 282 280 277 275 273 270 268 265 265 266 267 267 266 266 267 270 273 269 263 255 253 266 259 272 228 194 165 133 136 125 111 106 82 91 58 112 116 167 108 87 69
280 281 281 283 284 285 283 280 278 275 272 270 268 267 265 263 263 264 263 265 268 270 269 265 256 251 250 246 240 245 236 195 194 144 144 153 122 112 73 56 26 11 301 170 150 88 65
284 286 286 287 286 284 283 280 277 274 270 268 266 265 264 264 263 262 264 267 267 268 266 259 248 244 230 231 224 221 227 219 210 158 138 128 114 97 67 46 48 31 25 65 54 45 77
281 281 284 286 288 289 289 288 285 280 274 268 262 259 258 258 259 260 262 262 263 262 256 249 242 237 226 225 234 216 220 214 202 182 157 121 111 102 88 47 38 41 14 13 38 29 71
277 287 294 295 300 304 306 306 305 296 284 273 263 256 251 250 251 253 257 255 252 250 246 240 234 236 231 226 236 220 218 212 205 180 168 131 135 137 103 70 32 41 37 38 24 22 55
288 293 309 317 321 325 333 332 327 328 327 307 277 261 255 250 243 237 237 242 247 247 245 243 236 230 227 222 218 231 223 216 196 173 165 137 149 138 127 91 92 63 43 38 29 18 24
268 299 319 328 333 333 331 330 335 343 340 332 296 232 215 219 233 245 251 254 249 244 236 232 235 236 220 213 209 206 209 206 188 170 165 158 164 162 158 123 100 82 45 31 15 21 25
293 308 315 318 325 338 339 333 326 319 318 314 301 273 258 257 257 260 266 264 259 253 236 224 220 220 210 208 209 199 201 201 197 171 166 169 171 174 166 152 115 98 62 51 56 17 355
317 331 360 11 1 360 3 7 16 27 24 18 3 318 295 283 264 234 272 342 120 173 173 192 202 199 199 191 199 194 189 197 196 176 163 172 177 183 177 182 177 158 105 56 41 9 345
60 42 34 25 23 29 33 35 37 37 39 55 62 69 75 81 94 85 81 84 88 123 109 142 182 171 194 186 188 188 181 191 199 174 175 178 195 194 191 213 203 131 64 11 54 12 8
35 52 46 39 41 45 45 44 45 45 61 73 70 76 90 99 96 96 95 106 102 95 139 137 149 146 164 167 171 178 179 176 173 159 179 179 180 203 212 219 212 203 207 266 84 34 21
359 31 35 32 41 49 51 49 49 46 63 71 73 90 104 109 111 110 97 106 88 64 117 151 139 117 121 146 167 173 158 151 146 153 169 172 187 177 165 206 194 179 197 198 79 26 16
292 316 312 309 342 15 37 42 48 49 66 74 81 97 113 119 125 135 119 121 101 89 99 126 122 123 108 124 141 137 138 131 133 150 167 146 151 131 196 179 206 208 216 208 214 8 356
271 277 288 294 292 289 310 336 17 51 79 89 107 125 134 144 150 180 178 140 114 107 106 104 107 114 113 127 126 134 143 156 164 152 153 144 143 139 134 160 178 191 198 193 205 317 331
268 269 273 282 290 288 280 271 261 241 155 140 147 159 186 144 144 183 206 204 144 115 123 134 145 150 121 132 141 145 145 156 177 171 168 170 156 160 125 104 136 185 181 197 209 217 237
267 271 277 269 276 283 291 250 242 224 199 194 180 211 243 193 178 180 213 220 157 164 187 197 174 179 153 148 151 156 136 160 178 195 191 183 178 171 171 163 168 187 197 207 220 228 252
261 272 274 269 261 268 272 235 224 222 211 215 224 240 233 241 283 222 227 240 169 168 188 217 236 185 177 186 194 193 200 205 204 211 235 216 206 195 192 194 206 209 187 186 242 239 250
246 249 263 271 251 256 255 230 203 215 215 221 229 247 252 265 299 309 311 52 32 166 202 223 206 193 210 209 207 215 219 227 214 210 209 237 227 216 213 223 217 235 240 238 254 272 272
242 239 239 246 241 249 243 236 205 184 201 218 219 218 260 264 262 271 317 12 94 133 185 207 209 217 216 226 223 226 227 254 255 269 235 256 240 224 223 231 241 240 243 257 242 258 273
247 245 237 234 238 234 234 233 227 188 183 201 226 231 253 268 273 322 349 347 335 263 176 186 206 215 217 235 249 253 243 255 266 275 270 228 225 228 236 243 243 247 245 248 241 250 269
242 245 245 240 236 236 232 229 229 224 216 216 222 228 268 283 312 304 335 329 279 287 276 231 208 215 212 228 237 243 249 263 268 281 265 234 203 213 222 223 231 239 244 244 246 248 262
244 243 244 243 237 238 238 236 231 233 237 240 238 241 255 221 280 235 265 304 337 276 282 252 257 236 232 239 239 243 244 247 248 239 233 232 213 212 221 228 236 244 261 277 277 260 276
236 240 241 244 247 240 241 242 242 240 239 243 248 251 252 252 241 256 266 263 255 256 265 272 256 259 247 239 234 232 233 236 239 235 228 237 238 224 222 230 242 256 261 269 275 283 291
238 239 240 242 245 247 244 244 247 247 246 246 247 251 253 256 250 249 254 263 280 293 264 246 231 233 251 247 240 238 242 246 246 247 239 229 242 238 234 236 242 258 262 268 276 276 281
241 240 244 244 246 248 248 248 248 250 250 251 252 252 252 252 254 252 253 259 271 275 263 264 273 247 234 235 236 237 246 259 262 270 258 239 232 238 239 237 240 250 258 266 268 276 283
243 242 243 245 245 247 250 251 249 250 250 249 251 255 254 253 253 251 256 257 260 270 273 262 258 254 245 243 246 235 230 232 241 237 227 231 232 229 235 244 245 243 252 264 275 279 284
245 242 243 244 246 247 251 253 254 253 249 249 246 249 252 253 256 252 253 258 261 261 267 271 259 251 244 236 236 233 241 241 242 245 229 214 221 223 228 226 221 224 233 241 249 259 272
Height
5932 5932 5931 5930 5930 5929 5928 5928 5928 5927 5927 5926 5926 5925 5925 5925 5925 5925 5925 5924 5923 5923 5922 5921 5919 5918 5918 5918 5919 5920 5918 5917 5920 5922 5921 5921 5922 5918 5917 5915 5913 5910 5909 5911 5909 5912 5913
5927 5927 5926 5926 5925 5924 5924 5923 5923 5922 5922 5921 5920 5920 5920 5921 5920 5920 5921 5921 5920 5920 5919 5918 5917 5916 5916 5918 5918 5918 5919 5917 5918 5920 5920 5920 5921 5920 5917 5916 5916 5913 5912 5910 5912 5912 5912
5923 5922 5921 5920 5920 5919 5918 5917 5917 5916 5915 5915 5914 5914 5914 5915 5915 5915 5916 5916 5916 5917 5916 5916 5915 5913 5913 5916 5916 5917 5919 5918 5918 5919 5918 5919 5920 5921 5920 5920 5918 5915 5913 5904 5913 5913 5914
5919 5917 5916 5915 5914 5913 5912 5911 5910 5909 5908 5907 5907 5907 5908 5908 5908 5909 5910 5911 5912 5912 5912 5912 5911 5910 5911 5913 5914 5915 5917 5918 5918 5919 5918 5918 5919 5921 5919 5915 5917 5918 5914 5909 5904 5912 5915
5914 5912 5911 5909 5907 5906 5904 5903 5901 5900 5899 5899 5898 5899 5900 5901 5902 5903 5904 5905 5906 5907 5907 5907 5907 5906 5908 5907 5910 5912 5914 5916 5917 5918 5918 5919 5919 5920 5920 5918 5919 5917 5914 5905 5914 5913 5913
5909 5908 5906 5904 5902 5900 5897 5895 5892 5890 5889 5889 5888 5889 5891 5892 5894 5895 5897 5898 5898 5899 5900 5900 5901 5903 5904 5902 5906 5909 5910 5913 5915 5918 5919 5919 5919 5920 5923 5923 5922 5922 5918 5918 5917 5917 5914
5906 5904 5902 5901 5898 5896 5893 5889 5886 5883 5881 5880 5880 5880 5882 5884 5886 5888 5890 5891 5893 5893 5893 5894 5896 5896 5898 5902 5905 5908 5909 5910 5913 5917 5918 5920 5924 5925 5927 5926 5926 5927 5923 5923 5923 5923 5921
5902 5901 5900 5898 5895 5893 5890 5886 5884 5880 5878 5876 5876 5876 5878 5879 5881 5882 5883 5885 5887 5888 5889 5889 5889 5891 5895 5899 5902 5904 5907 5909 5913 5916 5918 5922 5926 5928 5929 5929 5927 5928 5929 5926 5925 5924 5923
5901 5900 5899 5896 5894 5891 5888 5886 5882 5879 5877 5876 5875 5875 5875 5877 5878 5879 5880 5882 5881 5882 5884 5885 5885 5887 5892 5895 5898 5901 5905 5906 5911 5915 5919 5923 5927 5928 5928 5929 5927 5926 5929 5929 5928 5926 5926
5900 5899 5897 5894 5892 5890 5887 5884 5882 5880 5878 5876 5875 5874 5874 5875 5877 5876 5877 5877 5877 5878 5879 5881 5882 5884 5888 5890 5895 5899 5902 5905 5908 5914 5917 5921 5923 5925 5927 5927 5927 5927 5928 5929 5929 5930 5929
5898 5897 5895 5894 5892 5890 5887 5884 5881 5879 5878 5876 5874 5874 5873 5873 5873 5873 5874 5874 5874 5876 5877 5879 5879 5882 5884 5889 5893 5897 5901 5903 5905 5912 5917 5920 5923 5925 5928 5928 5927 5927 5929 5930 5929 5929 5929
5897 5897 5895 5894 5892 5890 5888 5885 5882 5881 5879 5878 5876 5874 5873 5874 5874 5874 5874 5875 5875 5878 5876 5877 5878 5880 5884 5887 5891 5895 5899 5901 5904 5909 5915 5920 5923 5926 5927 5928 5928 5927 5928 5930 5930 5929 5927
5897 5896 5895 5894 5893 5891 5889 5886 5884 5883 5882 5880 5877 5876 5876 5876 5877 5876 5876 5877 5879 5878 5878 5878 5878 5880 5884 5888 5891 5895 5899 5902 5906 5909 5914 5919 5924 5926 5927 5928 5927 5926 5927 5931 5932 5930 5928
5897 5896 5895 5894 5893 5892 5891 5889 5887 5885 5884 5882 5880 5879 5879 5880 5879 5879 5879 5881 5879 5878 5877 5877 5879 5883 5887 5889 5892 5895 5898 5901 5904 5907 5914 5919 5922 5923 5925 5925 5926 5926 5929 5931 5933 5931 5931
5896 5895 5895 5894 5893 5892 5892 5890 5888 5887 5885 5884 5883 5883 5883 5882 5882 5881 5883 5882 5881 5880 5880 5880 5881 5886 5889 5890 5892 5896 5899 5903 5906 5910 5916 5919 5921 5922 5922 5922 5925 5925 5928 5931 5932 5931 5931
5895 5894 5894 5893 5892 5891 5891 5890 5889 5888 5887 5886 5885 5884 5884 5883 5883 5883 5884 5885 5885 5885 5887 5888 5887 5888 5890 5892 5894 5896 5899 5903 5905 5909 5914 5917 5919 5921 5921 5921 5922 5923 5926 5930 5930 5929 5929
5893 5892 5892 5891 5890 5890 5890 5889 5889 5888 5887 5886 5886 5885 5884 5884 5884 5883 5884 5885 5887 5888 5890 5891 5891 5891 5892 5895 5896 5898 5901 5904 5908 5912 5914 5916 5917 5920 5920 5920 5920 5920 5922 5925 5927 5928 5927
5891 5890 5890 5889 5889 5888 5888 5888 5887 5887 5886 5887 5887 5886 5885 5886 5885 5884 5883 5885 5887 5889 5890 5891 5892 5894 5895 5897 5898 5900 5902 5905 5908 5911 5912 5914 5916 5918 5921 5920 5920 5920 5922 5924 5926 5927 5926
5888 5888 5888 5887 5887 5887 5887 5887 5886 5886 5886 5886 5887 5886 5886 5887 5886 5886 5884 5886 5888 5889 5890 5891 5893 5895 5896 5897 5898 5899 5902 5903 5904 5907 5910 5912 5914 5917 5919 5920 5919 5919 5921 5923 5924 5925 5926
5885 5885 5886 5886 5885 5885 5885 5886 5885 5885 5885 5886 5886 5885 5887 5887 5887 5887 5887 5887 5887 5889 5890 5891 5893 5895 5897 5898 5900 5901 5901 5901 5904 5906 5909 5910 5912 5915 5916 5918 5919 5918 5919 5921 5923 5923 5923
5881 5882 5882 5883 5883 5884 5884 5884 5885 5884 5884 5885 5884 5885 5886 5886 5885 5886 5886 5886 5888 5888 5888 5889 5891 5894 5896 5897 5899 5900 5900 5901 5904 5906 5908 5908 5910 5911 5913 5915 5917 5917 5917 5918 5920 5921 5921
5878 5878 5878 5879 5880 5881 5882 5883 5883 5884 5884 5884 5884 5884 5884 5885 5885 5884 5886 5885 5885 5887 5888 5888 5888 5889 5891 5894 5895 5896 5898 5899 5901 5903 5903 5904 5906 5907 5909 5911 5912 5915 5915 5916 5917 5917 5918
5873 5874 5875 5875 5877 5878 5879 5880 5882 5883 5883 5883 5883 5883 5884 5885 5884 5884 5884 5884 5883 5884 5885 5886 5887 5887 5887 5888 5890 5890 5892 5894 5895 5896 5898 5899 5900 5903 5906 5908 5909 5912 5913 5914 5915 5914 5915
5868 5869 5870 5871 5872 5874 5875 5876 5878 5879 5881 5882 5882 5883 5883 5883 5883 5883 5882 5882 5882 5882 5883 5882 5883 5885 5886 5886 5887 5887 5889 5891 5892 5893 5894 5894 5897 5899 5903 5905 5906 5908 5909 5911 5912 5913 5914
5860 5862 5864 5866 5867 5869 5870 5871 5873 5875 5876 5878 5878 5880 5881 5882 5882 5881 5881 5880 5880 5880 5881 5880 5880 5881 5882 5883 5885 5886 5886 5887 5889 5890 5891 5892 5893 5895 5898 5901 5903 5903 5906 5907 5908 5910 5911
5850 5853 5855 5858 5860 5862 5864 5866 5867 5869 5871 5873 5873 5875 5877 5879 5880 5879 5879 5879 5879 5880 5879 5878 5878 5878 5879 5880 5881 5882 5883 5885 5885 5886 5888 5889 5890 5893 5895 5898 5899 5898 5901 5902 5903 5904 5906
5837 5841 5845 5848 5851 5854 5856 5858 5860 5862 5865 5867 5868 5869 5871 5873 5874 5875 5875 5876 5877 5877 5877 5876 5877 5877 5877 5877 5878 5879 5880 5882 5883 5884 5884 5885 5887 5888 5890 5892 5895 5896 5895 5896 5898 5902 5899
5823 5828 5832 5837 5840 5843 5846 5849 5851 5853 5856 5859 5862 5862 5864 5866 5868 5870 5870 5872 5873 5874 5875 5875 5876 5875 5875 5875 5876 5877 5878 5878 5879 5880 5881 5882 5884 5885 5887 5889 5892 5893 5892 5892 5893 5893 5893
5807 5812 5817 5822 5827 5831 5834 5837 5840 5842 5845 5848 5852 5855 5856 5859 5862 5863 5865 5865 5868 5868 5869 5871 5872 5872 5872 5873 5874 5875 5875 5876 5876 5877 5879 5880 5882 5883 5885 5887 5888 5888 5888 5888 5889 5889 5889